| time (UTC) | temp F | wind direction | speed MPH | gust MPH | rain 1hr in | rain 24hr in | rain mn in | humidity % | barometer mb |
| 20260509150049 | 62 | 360 | 5.0 | 13.0 | 0.00 | 0.03 | 0.03 | 74 | 1009.6 |
| 20260509144552 | 60 | 360 | 8.0 | 13.0 | 0.00 | 0.03 | 0.03 | 77 | 1009.6 |
| 20260509143054 | 59 | 168 | 5.0 | 9.0 | 0.00 | 0.03 | 0.03 | 84 | 1009.7 |
| 20260509141551 | 57 | 202 | 6.0 | 10.0 | 0.00 | 0.03 | 0.03 | 86 | 1009.7 |
| 20260509140052 | 57 | 220 | 5.0 | 13.0 | 0.00 | 0.03 | 0.03 | 91 | 1009.6 |
| 20260509134554 | 55 | 194 | 5.0 | 11.0 | 0.00 | 0.03 | 0.03 | 93 | 1010.0 |
| 20260509133100 | 54 | 110 | 1.0 | 4.0 | 0.00 | 0.03 | 0.03 | 94 | 1009.2 |
| 20260509131551 | 53 | 127 | 3.0 | 6.0 | 0.00 | 0.03 | 0.03 | 94 | 1009.4 |
| 20260509130049 | 53 | 360 | 2.0 | 5.0 | 0.00 | 0.03 | 0.03 | 94 | 1009.9 |
| 20260509124549 | 53 | 172 | 1.0 | 4.0 | 0.00 | 0.03 | 0.03 | 94 | 1009.7 |
| 20260509123052 | 53 | 156 | 1.0 | 2.0 | 0.00 | 0.03 | 0.03 | 94 | 1009.6 |
| 20260509121549 | 53 | 0 | 0.0 | 3.0 | 0.00 | 0.03 | 0.03 | 94 | 1009.4 |
| 20260509120054 | 53 | 145 | 1.0 | 2.0 | 0.00 | 0.03 | 0.03 | 94 | 1009.5 |
| 20260509114558 | 53 | 0 | 0.0 | 2.0 | 0.00 | 0.03 | 0.03 | 94 | 1009.3 |
| 20260509113051 | 53 | 0 | 0.0 | 0.0 | 0.00 | 0.03 | 0.03 | 94 | 1009.4 |
| 20260509111548 | 52 | 0 | 0.0 | 4.0 | 0.01 | 0.03 | 0.03 | 94 | 1009.5 |
| 20260509110054 | 52 | 0 | 0.0 | 0.0 | 0.01 | 0.03 | 0.03 | 93 | 1008.8 |
| 20260509104552 | 52 | 0 | 0.0 | 0.0 | 0.01 | 0.03 | 0.03 | 93 | 1009.5 |
| 20260509103049 | 52 | 0 | 0.0 | 0.0 | 0.01 | 0.03 | 0.03 | 93 | 1009.4 |
| 20260509101555 | 53 | 0 | 0.0 | 0.0 | 0.00 | 0.02 | 0.02 | 93 | 1009.4 |
| 20260509094551 | 53 | 0 | 0.0 | 0.0 | 0.00 | 0.02 | 0.02 | 93 | 1009.5 |
| 20260509093050 | 53 | 0 | 0.0 | 0.0 | 0.00 | 0.02 | 0.02 | 93 | 1009.5 |
| 20260509091551 | 53 | 86 | 1.0 | 3.0 | 0.01 | 0.02 | 0.02 | 92 | 1009.6 |
| 20260509090046 | 53 | 55 | 2.0 | 5.0 | 0.01 | 0.02 | 0.02 | 92 | 1009.6 |
| 20260509084548 | 53 | 358 | 0.0 | 2.0 | 0.02 | 0.02 | 0.02 | 92 | 1009.8 |
| 20260509083050 | 53 | 0 | 0.0 | 0.0 | 0.02 | 0.02 | 0.02 | 91 | 1009.8 |
| 20260509081550 | 53 | 0 | 0.0 | 4.0 | 0.01 | 0.01 | 0.01 | 91 | 1010.4 |
| 20260509080117 | 54 | 27 | 2.0 | 3.0 | 0.01 | 0.01 | 0.01 | 90 | 1010.2 |
| 20260509074550 | 54 | 57 | 1.0 | 3.0 | 0.00 | 0.00 | 0.00 | 89 | 1010.2 |
| 20260509073159 | 54 | 0 | 0.0 | 1.0 | 0.00 | 0.00 | 0.00 | 87 | 1010.4 |
| 20260509071550 | 55 | 0 | 0.0 | 2.0 | 0.00 | 0.00 | 0.00 | 86 | 1010.4 |
| 20260509070051 | 55 | 50 | 1.0 | 5.0 | 0.00 | 0.00 | 0.00 | 85 | 1010.0 |
| 20260509064555 | 55 | 0 | 0.0 | 0.0 | 0.00 | 0.00 | 0.00 | 83 | 1010.4 |
| 20260509063059 | 55 | 0 | 0.0 | 0.0 | 0.00 | 0.00 | 0.00 | 82 | 1010.4 |
| 20260509061558 | 56 | 0 | 0.0 | 0.0 | 0.00 | 0.00 | 0.00 | 81 | 1010.4 |
| 20260509060058 | 56 | 0 | 1.0 | 2.0 | 0.00 | 0.00 | 0.00 | 80 | 1010.4 |
| 20260509054600 | 56 | 37 | 2.0 | 3.0 | 0.00 | 0.00 | 0.00 | 78 | 1010.4 |
| 20260509053052 | 56 | 20 | 1.0 | 3.0 | 0.00 | 0.00 | 0.00 | 76 | 1010.5 |
| 20260509051558 | 57 | 32 | 2.0 | 4.0 | 0.00 | 0.00 | 0.00 | 74 | 1010.2 |
| 20260509050054 | 57 | 360 | 0.0 | 3.0 | 0.00 | 0.00 | 0.00 | 72 | 1010.3 |
| 20260509044549 | 58 | 31 | 2.0 | 4.0 | 0.00 | 0.00 | 0.00 | 68 | 1010.2 |
| 20260509043053 | 58 | 11 | 0.0 | 3.0 | 0.00 | 0.00 | 0.00 | 63 | 1010.4 |
| 20260509041548 | 58 | 0 | 1.0 | 6.0 | 0.00 | 0.00 | 0.00 | 67 | 1010.5 |
| 20260509040101 | 59 | 0 | 0.0 | 2.0 | 0.00 | 0.00 | 0.00 | 59 | 1010.2 |
| 20260509034543 | 58 | 360 | 1.0 | 2.0 | 0.00 | 0.00 | 0.00 | 61 | 1010.5 |
| 20260509033050 | 58 | 0 | 0.0 | 0.0 | 0.00 | 0.00 | 0.00 | 60 | 1010.5 |
| 20260509031554 | 59 | 0 | 0.0 | 2.0 | 0.00 | 0.00 | 0.00 | 59 | 1010.8 |
| 20260509030050 | 59 | 0 | 0.0 | 0.0 | 0.00 | 0.00 | 0.00 | 61 | 1010.9 |
| 20260509024547 | 59 | 0 | 0.0 | 0.0 | 0.00 | 0.00 | 0.00 | 60 | 1010.9 |
| 20260509023048 | 60 | 0 | 0.0 | 0.0 | 0.00 | 0.00 | 0.00 | 57 | 1011.0 |
| 20260509021548 | 61 | 0 | 0.0 | 2.0 | 0.00 | 0.00 | 0.00 | 54 | 1010.9 |
| 20260509020048 | 61 | 360 | 1.0 | 2.0 | 0.00 | 0.00 | 0.00 | 53 | 1010.9 |
| 20260509014549 | 62 | 360 | 1.0 | 2.0 | 0.00 | 0.00 | 0.00 | 53 | 1010.9 |
| 20260509013059 | 62 | 360 | 2.0 | 4.0 | 0.00 | 0.00 | 0.00 | 51 | 1010.8 |
| 20260509011545 | 62 | 360 | 2.0 | 3.0 | 0.00 | 0.00 | 0.00 | 50 | 1010.8 |
| 20260509010045 | 63 | 360 | 1.0 | 3.0 | 0.00 | 0.00 | 0.00 | 50 | 1010.8 |
| 20260509004608 | 64 | 360 | 1.0 | 4.0 | 0.00 | 0.00 | 0.00 | 48 | 1010.6 |
| 20260509003051 | 65 | 360 | 3.0 | 5.0 | 0.00 | 0.00 | 0.00 | 47 | 1010.4 |
| 20260509001549 | 65 | 360 | 3.0 | 7.0 | 0.00 | 0.00 | 0.00 | 46 | 1010.6 |
| 20260509000049 | 66 | 360 | 3.0 | 8.0 | 0.00 | 0.00 | 0.00 | 46 | 1010.7 |
| 20260508234548 | 66 | 360 | 5.0 | 10.0 | 0.00 | 0.00 | 0.00 | 45 | 1010.6 |
| 20260508233056 | 67 | 360 | 5.0 | 11.0 | 0.00 | 0.00 | 0.00 | 44 | 1010.4 |
| 20260508231545 | 67 | 360 | 7.0 | 14.0 | 0.00 | 0.00 | 0.00 | 43 | 1010.7 |
| 20260508230054 | 67 | 360 | 4.0 | 12.0 | 0.00 | 0.00 | 0.00 | 42 | 1010.4 |
| 20260508224550 | 67 | 360 | 6.0 | 12.0 | 0.00 | 0.00 | 0.00 | 43 | 1010.4 |
| 20260508223048 | 68 | 360 | 6.0 | 14.0 | 0.00 | 0.00 | 0.00 | 43 | 1010.3 |
| 20260508221550 | 68 | 360 | 6.0 | 15.0 | 0.00 | 0.00 | 0.00 | 41 | 1010.2 |
| 20260508220054 | 69 | 360 | 6.0 | 18.0 | 0.00 | 0.00 | 0.00 | 41 | 1010.3 |
| 20260508214549 | 68 | 360 | 8.0 | 15.0 | 0.00 | 0.00 | 0.00 | 41 | 1010.6 |
| 20260508213049 | 70 | 360 | 7.0 | 18.0 | 0.00 | 0.00 | 0.00 | 39 | 1010.5 |
| 20260508211548 | 70 | 288 | 9.0 | 17.0 | 0.00 | 0.00 | 0.00 | 38 | 1010.6 |
| 20260508210105 | 69 | 360 | 8.0 | 17.0 | 0.00 | 0.00 | 0.00 | 38 | 1010.6 |
| 20260508204544 | 69 | 360 | 7.0 | 14.0 | 0.00 | 0.00 | 0.00 | 40 | 1010.9 |
| 20260508203050 | 68 | 360 | 8.0 | 14.0 | 0.00 | 0.00 | 0.00 | 41 | 1011.0 |
| 20260508201550 | 70 | 360 | 7.0 | 14.0 | 0.00 | 0.00 | 0.00 | 39 | 1011.4 |
| 20260508200058 | 70 | 265 | 9.0 | 16.0 | 0.00 | 0.00 | 0.00 | 38 | 1011.5 |
| 20260508194549 | 70 | 360 | 5.0 | 15.0 | 0.00 | 0.00 | 0.00 | 43 | 1011.8 |
| 20260508193059 | 69 | 360 | 11.0 | 18.0 | 0.00 | 0.00 | 0.00 | 36 | 1011.5 |
| 20260508191545 | 69 | 360 | 10.0 | 19.0 | 0.00 | 0.00 | 0.00 | 36 | 1012.0 |
| 20260508184618 | 69 | 280 | 4.0 | 13.0 | 0.00 | 0.00 | 0.00 | 40 | 1012.3 |
| 20260508183056 | 69 | 360 | 6.0 | 17.0 | 0.00 | 0.00 | 0.00 | 41 | 1012.8 |
| 20260508181601 | 68 | 163 | 7.0 | 15.0 | 0.00 | 0.00 | 0.00 | 40 | 1013.1 |
| 20260508180056 | 68 | 360 | 7.0 | 15.0 | 0.00 | 0.00 | 0.00 | 42 | 1013.4 |
| 20260508174556 | 67 | 261 | 9.0 | 18.0 | 0.00 | 0.00 | 0.00 | 40 | 1013.5 |
| 20260508173057 | 67 | 360 | 11.0 | 23.0 | 0.00 | 0.00 | 0.00 | 44 | 1014.0 |
| 20260508171550 | 66 | 278 | 7.0 | 15.0 | 0.00 | 0.00 | 0.00 | 43 | 1014.1 |
| 20260508170051 | 67 | 360 | 7.0 | 13.0 | 0.00 | 0.00 | 0.00 | 48 | 1014.5 |
| 20260508164601 | 66 | 360 | 8.0 | 14.0 | 0.00 | 0.00 | 0.00 | 46 | 1014.7 |
| 20260508163046 | 65 | 290 | 9.0 | 18.0 | 0.00 | 0.00 | 0.00 | 44 | 1015.1 |
| 20260508161551 | 65 | 360 | 7.0 | 18.0 | 0.00 | 0.00 | 0.00 | 48 | 1015.1 |
| 20260508160051 | 65 | 360 | 8.0 | 18.0 | 0.00 | 0.00 | 0.00 | 52 | 1015.4 |
| 20260508154549 | 64 | 360 | 7.0 | 15.0 | 0.00 | 0.00 | 0.00 | 48 | 1015.6 |
| 20260508153050 | 64 | 360 | 9.0 | 16.0 | 0.00 | 0.00 | 0.00 | 47 | 1015.7 |
| 20260508151559 | 63 | 360 | 7.0 | 17.0 | 0.00 | 0.00 | 0.00 | 50 | 1015.8 |